{"data":{"norad_id":68014,"intl_designator":"2026-039AE","name":"STARLINK-36985","alt_names":[],"object_type":"PAYLOAD","status":"ACTIVE","operator":null,"country":"US","launch_date":"2026-02-27","launch_site_code":"AFETR","launch_vehicle":null,"mission":null,"orbit_class":"UNKNOWN","rcs_meters":null,"size_class":null,"mass_kg":null,"dimensions":null,"purposes":["comms"],"wikipedia_slug":null,"has_3d_model":false,"image_url":null,"decayed_at":null,"tle_current":{"epoch":"2026-05-24T20:17:15.882144Z","epoch_age_seconds":88113,"freshness":"FRESH","line1":"1 68014U 26039AE  26144.84532271  .00010890  00000+0  40458-3 0  9999","line2":"2 68014  43.0024 338.5477 0001488 274.4436  85.6246 15.27587091 13350","mean_motion":15.27587091,"eccentricity":0.0001488,"inclination_deg":43.0024,"raan_deg":338.5477,"arg_perigee_deg":274.4436,"mean_anomaly_deg":85.6246,"bstar":0.00040458,"rev_number":1335,"period_min":94.266311131062,"perigee_km":482.00692178518,"apogee_km":484.04880444845,"semimajor_km":6861.1648631168,"source":"CELESTRAK","updated_at":"2026-05-25T13:38:21.803761Z"}}}